Morristown, NJ

7:26 AM EDT on May 27, 2017 (GMT -0400)
Morristown Municipal

Weather History for KMMU - September, 2013

Change the Weather History Date:

Saturday, September 14, 2013

  Actual Average Record
Temperature  
Mean Temperature 56 °F -  
Max Temperature 64 °F 78 °F 93 °F (1952)
Min Temperature 46 °F 53 °F 37 °F (1946)
Degree Days  
Heating Degree Days 9    
Growing Degree Days 6 (Base 50)    
Moisture  
Dew Point 46 °F    
Average Humidity 69    
Maximum Humidity 93    
Minimum Humidity 52    
Precipitation  
Precipitation 0.00 in - - ()
Sea Level Pressure  
Sea Level Pressure 29.98 in    
Wind  
Wind Speed 4 mph (NNW)    
Max Wind Speed 13 mph    
Max Gust Speed 22 mph    
Visibility 10 miles    
Events      
Averages and records for this station are not official NWS values.
T = Trace of Precipitation, MM = Missing Value Source: NWS Daily Summary

Daily Weather History Graph

Daily Weather History Graph

Search for Another Location

Airport or City:

Trip Planner

Search our weather history database for the weather conditions in past years. The results will help you decide how hot, cold, wet, or windy it might be!

Date:

Astronomy

Sep. 14, 2013 Rise Set
Actual Time 6:37 AM EDT 7:07 PM EDT
Civil Twilight 6:09 AM EDT 7:35 PM EDT
Nautical Twilight 5:37 AM EDT 8:07 PM EDT
Astronomical Twilight 5:04 AM EDT 8:41 PM EDT
Moon 3:48 PM EDT (9/14) 1:04 AM EDT (9/14)
Length of Visible Light 13h 25m
Length of Day
12h 30m
Waxing Gibbous, 72% of the Moon is Illuminated
Sep 14
Waxing Gibbous
Sep 19
Full
Sep 26
Last Quarter
Oct 4
New
Oct 11
First Quarter

Hourly Weather History & Observations

Time (EDT) Temp. Dew Point Humidity Pressure Visibility Wind Dir Wind Speed Gust Speed Precip Events Conditions
12:15 AM 59.0 °F 48.2 °F 67% 29.88 in 10.0 mi NNW 3.5 mph - N/A   Clear
12:35 AM 57.2 °F 48.2 °F 72% 29.88 in 10.0 mi NNW 3.5 mph - N/A   Clear
12:55 AM 59.0 °F 48.2 °F 67% 29.89 in 10.0 mi NW 4.6 mph - N/A   Clear
1:15 AM 59.0 °F 46.4 °F 63% 29.89 in 10.0 mi NW 8.1 mph - N/A   Clear
1:35 AM 59.0 °F 46.4 °F 63% 29.89 in 10.0 mi NW 5.8 mph - N/A   Clear
1:55 AM 57.2 °F 46.4 °F 67% 29.90 in 10.0 mi NW 3.5 mph - N/A   Clear
2:15 AM 55.4 °F 46.4 °F 72% 29.90 in 10.0 mi Calm Calm - N/A   Clear
2:35 AM 55.4 °F 46.4 °F 72% 29.90 in 10.0 mi Calm Calm - N/A   Clear
2:55 AM 53.6 °F 48.2 °F 82% 29.90 in 10.0 mi Calm Calm - N/A   Clear
3:15 AM 55.4 °F 46.4 °F 72% 29.90 in 10.0 mi North 3.5 mph - N/A   Clear
3:35 AM 55.4 °F 46.4 °F 72% 29.90 in 10.0 mi Calm Calm - N/A   Clear
3:55 AM 55.4 °F 46.4 °F 72% 29.90 in 10.0 mi WNW 4.6 mph - N/A   Clear
4:15 AM 55.4 °F 44.6 °F 67% 29.91 in 10.0 mi NW 5.8 mph - N/A   Clear
4:35 AM 55.4 °F 44.6 °F 67% 29.92 in 10.0 mi Calm Calm - N/A   Clear
4:55 AM 55.4 °F 44.6 °F 67% 29.92 in 10.0 mi NNW 3.5 mph - N/A   Clear
5:15 AM 55.4 °F 44.6 °F 67% 29.92 in 10.0 mi North 5.8 mph - N/A   Clear
5:35 AM 55.4 °F 44.6 °F 67% 29.93 in 10.0 mi North 4.6 mph - N/A   Clear
5:55 AM 55.4 °F 44.6 °F 67% 29.93 in 10.0 mi Calm Calm - N/A   Clear
6:15 AM 51.8 °F 44.6 °F 76% 29.94 in 10.0 mi Calm Calm - N/A   Clear
6:35 AM 53.6 °F 44.6 °F 72% 29.95 in 10.0 mi North 4.6 mph - N/A   Clear
6:45 AM 50.0 °F 44.6 °F 82% 29.96 in 10.0 mi NNE 3.5 mph - N/A   Partly Cloudy
7:45 AM 53.6 °F 44.6 °F 72% 29.98 in 10.0 mi North 8.1 mph - N/A   Clear
8:45 AM 57.2 °F 44.6 °F 63% 29.98 in 10.0 mi NNE 9.2 mph 13.8 mph N/A   Clear
9:45 AM 59.0 °F 46.4 °F 63% 30.00 in 10.0 mi North 8.1 mph 19.6 mph N/A   Partly Cloudy
10:45 AM 60.8 °F 46.4 °F 59% 30.00 in 10.0 mi North 11.5 mph 19.6 mph N/A   Scattered Clouds
11:45 AM 62.6 °F 46.4 °F 55% 30.01 in 10.0 mi NNW 6.9 mph 18.4 mph N/A   Scattered Clouds
12:45 PM 64.4 °F 46.4 °F 52% 30.02 in 10.0 mi NNW 12.7 mph 21.9 mph N/A   Overcast
1:45 PM 62.6 °F 46.4 °F 55% 30.02 in 10.0 mi North 9.2 mph 15.0 mph N/A   Mostly Cloudy
2:45 PM 64.4 °F 46.4 °F 52% 30.02 in 10.0 mi North 6.9 mph 13.8 mph N/A   Overcast
3:45 PM 62.6 °F 46.4 °F 55% 30.02 in 10.0 mi NW 8.1 mph - N/A   Mostly Cloudy
4:45 PM 60.8 °F 46.4 °F 59% 30.05 in 25.0 mi NW 10.4 mph 19.6 mph N/A   Mostly Cloudy
5:45 PM 60.8 °F 44.6 °F 55% 30.07 in 10.0 mi NW 11.5 mph 17.3 mph N/A   Scattered Clouds
6:45 PM 57.2 °F 44.6 °F 63% 30.08 in 10.0 mi NW 6.9 mph - N/A   Scattered Clouds
7:45 PM 53.6 °F 46.4 °F 77% 30.09 in 10.0 mi WNW 4.6 mph - N/A   Clear
8:45 PM 53.6 °F 44.6 °F 72% 30.12 in 10.0 mi WNW 5.8 mph - N/A   Clear
9:45 PM 51.8 °F 46.4 °F 82% 30.13 in 7.0 mi Calm Calm - N/A   Clear
10:55 PM 48.2 °F 44.6 °F 87% 30.14 in 10.0 mi Calm Calm - N/A   Clear
11:15 PM 48.2 °F 44.6 °F 87% 30.14 in 10.0 mi Calm Calm - N/A   Clear
11:35 PM 48.2 °F 44.6 °F 87% 30.14 in 10.0 mi Calm Calm - N/A   Clear
11:55 PM 46.4 °F 44.6 °F 93% 30.15 in 10.0 mi Calm Calm - N/A   Clear